Flag for India Weather past 2 weeks in Amritsar, Punjab, India

Now
48 °F

Fog.


Feels Like: 48 °F
Forecast: 43 / 65 °F
Wind: No wind

Location: Amritsar Airport

Current Time: Dec 22, 2014 at 1:19:20 AM

Latest Report: Dec 22, 2014 at 12:30 AM


Visibility: 0 mi

Pressure: 30.07 "Hg

Humidity: 94%

Dew point: 46 °F

Location of AmritsarLocation

Historic Weather in Amritsar — Graph

°F

Amritsar temperature yesterday

Maximum temperature yesterday: 55 °F (at 2:00 PM)
Minimum temperature yesterday: 45 °F (at 4:30 AM)
Average temperature yesterday: 49 °F

Past Weeks' High & Low Weather Summary

 TemperatureHumidityPressure
High75 °F (Dec 7, 2:30 PM)100% (Dec 8, 3:30 AM)30.27 "Hg (Dec 8, 3:30 AM)
Low37 °F (Dec 16, 7:30 AM)22% (Dec 9, 3:30 PM)29.77 "Hg (Dec 12, 2:30 PM)
Average52 °F78%30.08 "Hg
* Reported Dec 6 11:30 PM — Midnight between Dec 21 and Dec 22, Amritsar, Weather by CustomWeather, © 2014

Note: Actual official high and low records may vary slightly from our data, if they occured in-between our weather recording intervals... More about our weather records

Advertising

Amritsar weather history for previous 24 hours

 ConditionsComfort  
Time TempWeatherWind HumidityBarometerVisibility
12:00 AM
Dec 22
48 °FFog.No wind94%30.07 "Hg1 mi
11:30 PM
Dec 21
48 °FFog.No wind94%30.07 "Hg1 mi
11:00 PM48 °FFog.No wind87%30.07 "Hg1 mi
10:30 PM48 °FFog.No wind94%30.07 "Hg1 mi
9:30 PM50 °FFog.6 mph88%30.07 "Hg1 mi
9:00 PM50 °FFog.6 mph88%30.07 "Hg0 mi
8:30 PM50 °FFog.6 mph94%30.07 "Hg0 mi
8:00 PM50 °FFog.6 mph88%30.07 "Hg0 mi
7:00 PM50 °FFog.5 mph88%30.09 "Hg1 mi
6:30 PM50 °FFog.2 mph88%30.07 "Hg1 mi
6:00 PM50 °FFog.No wind88%30.04 "Hg1 mi
5:30 PM52 °FFog.No wind82%30.04 "Hg1 mi
5:00 PM52 °FFog.No wind82%30.04 "Hg1 mi
4:30 PM52 °FFog.5 mph82%30.04 "Hg1 mi
4:00 PM54 °FFog.7 mph77%30.04 "Hg1 mi
3:30 PM54 °FBroken clouds.1 mph77%30.04 "Hg1 mi
3:00 PM54 °FBroken clouds.No wind77%30.04 "Hg1 mi
2:30 PM54 °FBroken clouds.No wind77%30.04 "Hg1 mi
2:00 PM55 °FBroken clouds.No wind72%30.04 "Hg1 mi
1:30 PM54 °FBroken clouds.No wind77%30.07 "Hg1 mi
1:00 PM54 °FFog.No wind77%30.07 "Hg1 mi
12:30 PM52 °FFog.No wind77%30.09 "Hg1 mi
12:00 PM50 °FFog.No wind82%30.09 "Hg1 mi
11:30 AM48 °FFog.No wind87%30.09 "Hg1 mi
11:00 AM48 °FFog.No wind87%30.09 "Hg1 mi
10:30 AM46 °FFog.No wind100%30.12 "Hg1 mi
10:00 AM46 °FFog.No wind100%30.12 "Hg0 mi
9:30 AM45 °FFog.No wind100%30.09 "Hg0 mi
9:00 AM45 °FFog.No wind100%30.07 "Hg0 mi
8:30 AM45 °FFog.No wind100%30.07 "Hg0 mi
8:00 AM45 °FFog.No wind100%30.04 "Hg0 mi
7:30 AM45 °FFog.No wind100%30.04 "Hg0 mi
7:00 AM45 °FFog.No wind100%30.04 "Hg0 mi
6:30 AM45 °FFog.No wind100%30.04 "Hg0 mi
6:00 AM45 °FFog.No wind100%30.01 "Hg0 mi
5:30 AM45 °FFog.No wind100%30.01 "Hg0 mi
5:00 AM45 °FFog.No wind100%30.01 "Hg0 mi
4:30 AM45 °FFog.No wind100%30.01 "Hg0 mi
Weather by CustomWeather, © 2014

See weather overviewHow to use our weather pages